[[{"header":{"parameterUnit":"m.s-1","parameterCategory":1,"la1":30.2991,"la2":30.254,"lo1":-89.0895,"lo2":-89.0444,"dy":0.0017,"dx":0.0017,"nx":28,"ny":28,"refTime":"2024-07-09T09:00:00:Z","depth":0,"parameterNumber":2,"parameterNumberName":"U-component_of_WINDS"},"data":[0,0,0,0,0,0,0,0,0,0,0,0,0,0,0,0,0,0,0,0,0,0,0,0,0,0,0,0,0,0,0,0,0,0,0,0,0,0,0,0,0,0,0,0,0,0,0,0,0,0,0,0,0,0,0,0,0,0,3.7076,3.7076,0,3.715,3.7151,3.7152,3.7116,3.7114,3.7112,3.711,3.7185,3.7189,3.7192,0,0,0,0,0,0,0,0,0,0,0,0,0,3.69,3.6903,3.7075,3.7076,3.7077,3.715,3.7151,3.7152,3.7116,3.7114,3.7112,3.711,3.7184,3.7188,3.7193,0,0,0,0,0,0,0,0,0,0,0,0,0,3.6975,3.6904,3.7075,3.7068,3.7068,3.715,3.7151,3.7153,3.7117,3.7114,3.7111,3.7109,3.7182,3.7188,3.7193,3.7285,0,0,3.7211,3.7213,0,0,0,0,0,0,0,0,3.6971,3.6982,3.7068,3.7069,3.7069,3.7121,3.7117,3.7197,3.7118,3.7098,3.711,3.7107,3.7166,3.7173,3.7193,3.7289,3.7292,3.7211,3.7214,3.7217,3.7218,0,0,0,0,0,0,0,3.6966,3.6979,3.7105,3.707,3.707,3.7061,3.7068,3.7132,3.7147,3.71,3.7097,3.7107,3.7165,3.7188,3.7194,3.7293,3.7211,3.7216,3.7219,3.7222,3.747,3.7473,0,0,0,0,0,0,3.6961,3.6974,3.7103,3.7107,3.7012,3.7066,3.7075,3.7107,3.7146,3.715,3.7109,3.7105,3.7179,3.7188,3.7197,3.7308,3.7217,3.7222,3.7225,3.7467,3.747,3.7474,0,0,0,0,0,0,3.6958,3.6973,3.71,3.704,3.7056,3.7072,3.7109,3.711,3.7132,3.7154,3.7156,3.7129,3.7177,3.7189,3.7264,3.731,3.7225,3.723,3.7463,3.7468,3.7472,3.7531,0,0,0,0,0,0,3.6953,3.6972,3.7007,3.7041,3.7059,3.7166,3.7112,3.7114,3.7142,3.7137,3.7173,3.7176,3.7176,3.7256,3.727,3.7316,3.7234,3.7459,3.7465,3.7471,3.7525,3.7537,3.7548,0,0,0,0,0,3.6947,3.702,3.7009,3.7025,3.7104,3.7169,3.7179,3.7178,3.7146,3.7182,3.7196,3.7175,3.7303,3.7264,3.7279,3.7328,3.7456,3.7463,3.747,3.752,3.7535,3.7547,0,0,0,0,0,0,3.699,3.7025,3.7013,3.71,3.7132,3.7163,3.7208,3.7194,3.7235,3.7229,3.7225,3.7233,3.7312,3.7327,3.7283,3.742,3.7374,3.7385,3.7407,3.7421,3.7432,3.7427,3.7239,0,0,0,0,0,3.701,3.7061,3.7088,3.7162,3.7179,3.7191,3.7219,3.7216,3.7248,3.7262,3.7281,3.7313,3.736,3.7392,3.7436,3.7527,3.7535,3.7568,3.758,3.7589,3.7598,3.7648,3.7664,3.7498,3.7497,3.7497,0,0,3.7052,3.7077,3.7109,3.7171,3.7196,3.7248,3.7202,3.7259,3.7298,3.727,3.7343,3.7358,3.7393,3.7477,3.7515,3.7493,3.7646,3.7598,3.7605,3.761,3.7657,3.7673,3.7687,3.7502,3.7502,3.7501,0,0,3.7154,3.7178,3.7243,3.7268,3.7307,3.7314,3.733,3.7363,3.7373,3.7446,3.7426,3.7472,3.7554,3.758,3.7604,3.7718,3.77,3.7732,3.7792,3.784,3.7853,3.7865,3.7906,3.7921,3.7741,3.7742,3.7742,0,3.72,3.7279,3.7277,3.7337,3.7365,3.7343,3.7409,3.7434,3.7484,3.7504,3.7479,3.7582,3.7604,3.7694,3.7722,3.7742,3.776,3.7728,3.7852,3.7863,3.7874,3.7913,3.7929,3.7745,3.7745,3.7745,3.7744,0,3.7334,3.7389,3.7437,3.7487,3.7521,3.7583,3.7591,3.7625,3.7619,3.763,3.7705,3.7731,3.7781,3.7802,3.7796,3.7892,3.7877,3.7852,3.7806,3.7894,3.793,3.7945,3.7751,3.7749,3.7748,3.7747,0,0,3.7465,3.7516,3.7533,3.7556,3.7597,3.7639,3.77,3.775,3.778,3.7816,3.7867,3.7937,3.7915,3.7942,3.7939,3.7982,3.8071,3.7952,3.7953,3.7974,3.8179,3.8198,3.8215,3.806,3.8063,3.8065,3.8176,0,3.7571,3.7679,3.768,3.7779,3.783,3.7811,3.7864,3.7895,3.7906,3.7951,3.7963,3.8013,3.7979,3.7996,3.8037,3.8052,3.8113,3.8044,3.8108,3.811,3.81,3.8234,3.8254,3.8357,3.819,3.8193,3.8194,0,3.7708,3.775,3.7854,3.7889,3.791,3.7958,3.8005,3.8048,3.8082,3.8087,3.8119,3.811,3.8172,3.8125,3.821,3.8164,3.819,3.8201,3.8205,3.8211,3.8157,3.8244,3.839,3.8405,3.8217,3.8215,3.8213,0,3.7794,3.7876,3.795,3.797,3.8012,3.8046,3.8065,3.8097,3.8127,3.8168,3.8187,3.8234,3.826,3.8296,3.83,3.8265,3.8387,3.8339,3.8393,3.8393,3.8419,3.8418,3.8572,3.8436,3.8436,3.8436,3.8435,0,3.7912,3.7977,3.7989,3.8034,3.8106,3.8107,3.8178,3.8194,3.8223,3.8271,3.8256,3.8301,3.8304,3.835,3.8353,3.8424,3.8436,3.8442,3.8442,3.8443,3.8443,3.846,3.8453,3.844,3.8439,3.8438,3.8437,0,3.802,3.8031,3.811,3.8144,3.8154,3.8205,3.8234,3.8277,3.8287,3.8348,3.8362,3.8379,3.8432,3.844,3.8502,3.8505,3.859,3.8582,3.8579,3.8578,3.8631,3.8626,3.8802,3.8826,3.8674,3.8676,3.8677,0,3.8095,3.8145,3.8184,3.8216,3.8237,3.8287,3.8319,3.8321,3.8354,3.8398,3.8436,3.8489,3.8531,3.8617,3.8635,3.8682,3.8676,3.8735,3.8683,3.8683,3.8678,3.8675,3.868,3.8744,3.8746,3.8747,3.8749,0,3.8227,3.823,3.8276,3.8324,3.8363,3.84,3.8436,3.8463,3.847,3.8508,3.8563,3.8596,3.8661,3.8713,3.8761,3.8779,3.8766,3.8765,3.878,3.8782,3.8778,3.8781,3.8606,3.8761,3.8759,3.8759,3.8758,3.8757,3.8321,3.8364,3.8399,3.8451,3.8479,3.8513,3.8555,3.8572,3.8618,3.8672,3.867,3.8731,3.8765,3.8828,3.885,3.8897,3.8878,3.89,3.8905,3.8911,3.8916,3.877,3.8906,3.8906,3.8905,3.8905,3.8905,0,3.8452,3.8474,3.8522,3.8573,3.8614,3.8598,3.8637,3.8673,3.8727,3.876,3.8802,3.8866,3.8917,3.8938,3.8988,3.9022,3.9017,3.9035,3.9033,3.9038,3.893,3.8913,3.9039,3.9039,3.9039,3.9039,3.9039,3.9039,3.8525,3.8599,3.8606,3.8693,3.8714,3.8774,3.8798,3.8829,3.8856,3.8928,3.8971,3.8985,3.9013,3.9066,3.9112,3.9117,3.9136,3.9157,3.9159,3.9059,3.9045,3.9032,3.9015,3.9161,3.9161,3.9263,3.9263,3.9264]},{"header":{"parameterUnit":"m.s-1","parameterCategory":1,"la1":30.2991,"la2":30.254,"lo1":-89.0895,"lo2":-89.0444,"dy":0.0017,"dx":0.0017,"nx":28,"ny":28,"refTime":"2024-07-09T09:00:00:Z","depth":0,"parameterNumber":3,"parameterNumberName":"V-component_of_WINDS"},"data":[0,0,0,0,0,0,0,0,0,0,0,0,0,0,0,0,0,0,0,0,0,0,0,0,0,0,0,0,0,0,0,0,0,0,0,0,0,0,0,0,0,0,0,0,0,0,0,0,0,0,0,0,0,0,0,0,0,0,1.0498,1.0498,0,1.0503,1.0503,1.0503,1.0471,1.047,1.0469,1.0468,1.0473,1.0474,1.0475,0,0,0,0,0,0,0,0,0,0,0,0,0,1.046,1.046,1.0498,1.0498,1.0498,1.0503,1.0503,1.0503,1.0471,1.047,1.0469,1.0468,1.0473,1.0474,1.0475,0,0,0,0,0,0,0,0,0,0,0,0,0,1.0472,1.0461,1.0498,1.0483,1.0481,1.0503,1.0503,1.0503,1.0472,1.047,1.0469,1.0468,1.0473,1.0474,1.0476,1.0512,0,0,1.048,1.0481,0,0,0,0,0,0,0,0,1.0471,1.0473,1.0485,1.0484,1.0482,1.0485,1.0491,1.0506,1.0472,1.0475,1.0468,1.0467,1.0478,1.0479,1.0483,1.0512,1.0512,1.048,1.0481,1.0482,1.0482,0,0,0,0,0,0,0,1.047,1.0473,1.05,1.0485,1.0484,1.0475,1.0476,1.0494,1.0484,1.0475,1.0473,1.0474,1.0477,1.0482,1.0483,1.0513,1.048,1.0482,1.0482,1.0483,1.0572,1.0573,0,0,0,0,0,0,1.0471,1.0472,1.05,1.05,1.0473,1.0477,1.0477,1.0486,1.0484,1.0483,1.0475,1.0472,1.048,1.0481,1.0483,1.0526,1.0482,1.0483,1.0484,1.057,1.0572,1.0573,0,0,0,0,0,0,1.0471,1.0474,1.05,1.0486,1.0488,1.0479,1.0489,1.0486,1.0491,1.0484,1.0482,1.0481,1.0479,1.0481,1.0505,1.0526,1.0484,1.0485,1.0568,1.0571,1.0573,1.0612,0,0,0,0,0,0,1.047,1.0474,1.0488,1.0486,1.0489,1.0522,1.049,1.0488,1.0494,1.049,1.049,1.0488,1.0478,1.0503,1.0507,1.0527,1.0486,1.0566,1.0569,1.0572,1.0609,1.0615,1.062,0,0,0,0,0,1.0469,1.0499,1.0489,1.0493,1.0506,1.0523,1.0525,1.0513,1.0495,1.0509,1.0505,1.0488,1.0523,1.0506,1.0509,1.0531,1.0565,1.0569,1.0572,1.0606,1.0614,1.062,0,0,0,0,0,0,1.0504,1.0498,1.0487,1.0518,1.0521,1.0518,1.0535,1.0521,1.0529,1.0526,1.051,1.051,1.0537,1.0536,1.0517,1.0566,1.0541,1.0545,1.0566,1.0573,1.0579,1.0579,1.0488,0,0,0,0,0,1.0515,1.0529,1.0524,1.0551,1.0553,1.0544,1.0551,1.0541,1.0544,1.0545,1.0542,1.0545,1.0557,1.0565,1.0575,1.0608,1.0607,1.0624,1.063,1.0635,1.0639,1.0657,1.0664,1.0584,1.0584,1.0584,0,0,1.0538,1.0537,1.0547,1.0558,1.0559,1.0574,1.0545,1.0562,1.0573,1.0547,1.057,1.0568,1.057,1.0599,1.0612,1.0599,1.0661,1.0639,1.0643,1.0645,1.0661,1.0668,1.0675,1.0587,1.0586,1.0586,0,0,1.0589,1.0589,1.0612,1.0614,1.0617,1.061,1.0616,1.0614,1.0612,1.0634,1.0615,1.0628,1.0648,1.065,1.0654,1.0705,1.0691,1.0709,1.074,1.0758,1.0764,1.077,1.0788,1.0795,1.0713,1.0713,1.0713,0,1.0618,1.064,1.0626,1.0644,1.065,1.0627,1.065,1.0652,1.0658,1.0662,1.0648,1.0673,1.0673,1.0702,1.0714,1.0718,1.0724,1.0709,1.0764,1.077,1.0775,1.0792,1.0799,1.0715,1.0715,1.0715,1.0715,0,1.0675,1.069,1.0709,1.0715,1.0722,1.0743,1.0732,1.0741,1.0731,1.0726,1.0749,1.0748,1.0757,1.0763,1.0753,1.0791,1.0783,1.0767,1.0742,1.0785,1.0801,1.0807,1.0718,1.0718,1.0717,1.0716,0,0,1.0748,1.0746,1.0753,1.0756,1.0757,1.0768,1.0788,1.0797,1.0806,1.081,1.0826,1.0843,1.0828,1.0833,1.0822,1.0838,1.0878,1.0819,1.0819,1.0831,1.092,1.0933,1.0941,1.0868,1.0869,1.087,1.092,0,1.0798,1.0832,1.082,1.0854,1.0868,1.0846,1.0863,1.0865,1.0861,1.0872,1.0867,1.088,1.0859,1.0861,1.0875,1.0871,1.0896,1.0867,1.0883,1.0884,1.0884,1.095,1.0963,1.101,1.0927,1.0928,1.0928,0,1.0861,1.0868,1.0904,1.0902,1.0907,1.0923,1.0931,1.0942,1.0944,1.0939,1.0944,1.0931,1.0949,1.0924,1.095,1.093,1.0936,1.0934,1.0936,1.0937,1.0909,1.0954,1.1025,1.1033,1.0938,1.0937,1.0937,0,1.0911,1.093,1.0953,1.0956,1.0955,1.0966,1.0966,1.0967,1.0973,1.098,1.0984,1.0992,1.0997,1.1004,1.0993,1.0976,1.1021,1.0994,1.1018,1.1018,1.1029,1.1029,1.1103,1.1032,1.1032,1.1032,1.1031,0,1.0968,1.0991,1.0976,1.0991,1.1016,1.1001,1.1026,1.1024,1.1024,1.1038,1.102,1.1033,1.1017,1.1029,1.1021,1.1043,1.1046,1.1043,1.104,1.1045,1.1045,1.1049,1.1046,1.1033,1.1033,1.1033,1.1032,0,1.1029,1.102,1.1045,1.1041,1.1041,1.1059,1.1056,1.107,1.1064,1.1081,1.1085,1.1075,1.1088,1.1078,1.109,1.1085,1.1115,1.1107,1.1114,1.1113,1.1137,1.1135,1.1217,1.1227,1.1149,1.115,1.115,0,1.1066,1.1084,1.1082,1.109,1.1091,1.1104,1.1111,1.1097,1.1104,1.1108,1.1121,1.1132,1.114,1.1162,1.1156,1.1166,1.1159,1.1187,1.116,1.1164,1.116,1.1159,1.1161,1.1192,1.1193,1.1194,1.1195,0,1.1134,1.1128,1.1139,1.1148,1.1156,1.1162,1.1167,1.1174,1.116,1.117,1.1182,1.1189,1.1202,1.1213,1.1221,1.122,1.1205,1.1203,1.1209,1.1214,1.1218,1.1217,1.113,1.1201,1.1201,1.12,1.12,1.12,1.1184,1.1199,1.12,1.1212,1.1214,1.1219,1.1231,1.1227,1.1237,1.1247,1.1238,1.1254,1.1255,1.1263,1.1265,1.1277,1.1265,1.1274,1.1276,1.1279,1.1282,1.1215,1.1278,1.1278,1.1278,1.1277,1.1277,0,1.1251,1.1251,1.1262,1.1269,1.1279,1.1264,1.1268,1.1277,1.1291,1.1293,1.1302,1.1317,1.1328,1.1323,1.1332,1.1343,1.1336,1.1346,1.1345,1.1346,1.1292,1.1286,1.1351,1.1351,1.1351,1.1351,1.1351,1.1351,1.1287,1.1311,1.1305,1.1329,1.1329,1.1344,1.1348,1.1352,1.1354,1.1372,1.1381,1.1377,1.1377,1.1386,1.1396,1.1394,1.1398,1.1411,1.1407,1.1357,1.1349,1.1342,1.1337,1.1412,1.1412,1.1459,1.146,1.146]}]]